DECAYED
Showing default

FLOCK 4Y 9, 55069 (Decayed)

Orbit data source: Space-Track

FLOCK 4Y 9, 55069 was a payload satellite owned by Planet (US) in LEO that was launched on Tue, 03 Jan 2023 UTC via an FALCON 9 launch vehicle from the Air Force Eastern Test Range (AFETR). Payload-class satellites include a variety of spacecraft equipped with specific instruments for various scientific and technological missions. These include communications satellites like Starlink; space stations such as the ISS; scientific satellites like the Hubble; Earth observation satellites from companies like Planet Labs, Umbra, and HawkEye 360; GPS; miniature CubeSats for education and research; and military/defense satellites.

Not visible in the next 10 days
Identifier
55069, 2023-001BN
Orbit
Decayed
Country
Flag of USUS
Related business
Manufacturer
Planet
Mission
Decayed Commercial Imaging
Bus & Motor
CUBESAT 3U, Unknown motor
Mass
5.7 kg wet, 5.7 kg dry
Launch date (UTC)
2023-01-03 (3 years ago)
Launch vehicle
FALCON 9
Launch site
Air Force Eastern Test Range (AFETR)
Object type
Payload
Rocket body
Debris
Shape & HBR
Box + 2 Pan, 1.0 m
Radar Cross Section
0.108 m², Medium (>0.1 m² and < 1m²)

Expand to show TLE details & history
Last TLE update: 9 months ago

TLE from 9 months ago
0 FLOCK 4Y 9
1 55069U 23001BN  25121.22939879  .12642870  25349-5  10329-2 0  9996
2 55069  97.3544 194.9525 0013380 231.8912 128.1182 16.39393607129850
Epoch: 2025-05-01T05:30Z
TLE epoch observation values (Epoch: 2025-05-01T05:30:20.055Z)
Latitude
0.00002°
Longitude
-107.03442°
Altitude
176.083 km
Speed
7.797 km/s
True Right ascension
12h 59m 48s
True Declination
0° 00' 00"
Sunlit
Object was in full shadow at epoch
Visualization orbit readout
Latitude
Unknown
Longitude
Unknown
Altitude
Unknown
Speed
Unknown
Apparent Right ascension
Unknown
Apparent Declination
Unknown
Sunlit
N/A
Visualization observer readout
Local Sidereal Time
15:53:12
Azimuth
Unknown
Elevation
Unknown
Doppler factor
Unknown
Orbital elements
Apogee altitude
172.976 km
Perigee altitude
155.469 km
Semi-major axis
6,542.359 km
Eccentricity
0.00134
Inclination
97.3544°
RAAN
194.9525°
Arg. of periapsis
231.8912°
True anomaly
128.2387°
Mean anomaly
128.1182°
Eccentric anomaly
128.17846°
Mean motion
4.10149 °/min
Orbital period
87.77 mins
BSTAR
0.0010329
Loading maneuver chart data...
Computing Atmospheric mass density...
Loading historical data...
Loading historical data...
Loading historical data...
Loading historical data...
Loading historical data...
Loading historical data...
Loading historical data...

Documentation

Showing up to 5 results
|